Wind_Speed
44 43 44 44 43 43 42 42 42 41 40 39 40 41 41 40 39 38 37 37 37 37 37 37 37 37 37 37 37 36 35 35 35 35 36 35 34 32 30 29 31 31 31 29 27 26 26 25 25 24 21 18 18 17 17 16 15 15 15 15 14 12 11 11 9 9 9 9 8 7 7 7 8 9 9 9 8 8 9 10 11 12 13 13 14
44 44 43 43 43 43 42 41 41 40 40 39 40 41 41 40 40 38 37 38 37 38 38 38 38 38 38 38 38 37 37 36 35 35 36 36 35 33 32 31 32 33 33 32 30 28 27 26 25 24 23 21 18 17 17 17 16 16 16 15 14 13 12 12 11 10 10 11 10 10 9 9 10 10 10 10 9 9 11 11 12 12 12 13 14
44 44 43 43 43 43 41 41 41 40 41 40 41 42 42 41 39 38 38 38 37 38 38 38 38 38 38 38 38 38 38 37 36 36 37 37 36 36 35 34 33 33 34 34 32 30 28 27 26 24 23 22 19 17 17 18 18 17 17 17 16 15 14 14 13 12 11 11 11 11 11 11 12 12 11 11 11 12 13 14 13 13 13 14 15
42 43 43 42 42 42 41 41 40 40 41 41 42 43 42 40 39 39 39 37 37 37 37 38 38 38 38 38 38 38 38 37 36 37 38 38 38 38 37 36 35 34 35 34 33 32 31 30 28 26 23 22 21 18 17 18 19 18 17 17 18 17 16 15 15 14 13 12 12 12 12 12 13 12 12 13 14 14 15 15 16 16 15 14 15
41 42 42 41 40 41 41 41 40 41 42 42 43 43 42 40 39 39 38 37 36 36 36 37 37 38 39 39 39 38 38 37 37 37 38 39 39 39 38 37 36 35 35 34 33 33 32 32 31 28 25 24 23 21 19 18 18 18 18 18 19 18 17 17 16 16 15 15 15 14 13 14 15 15 14 14 16 16 16 17 18 18 17 16 15
41 41 41 40 40 40 41 41 42 42 42 42 42 43 42 40 39 38 38 37 36 36 36 37 38 38 39 39 39 38 37 37 38 39 39 40 40 39 38 37 37 36 35 34 34 33 33 32 32 30 28 26 26 25 23 21 20 20 20 19 18 18 18 18 17 16 16 16 17 17 17 17 17 17 16 15 16 16 17 19 20 19 17 16 16
41 41 41 40 40 41 42 43 42 42 43 42 42 41 40 40 39 38 38 37 36 36 36 37 38 38 38 38 38 37 36 37 38 39 40 40 40 40 38 37 37 37 36 36 35 34 34 32 32 31 30 29 28 26 24 22 22 22 21 19 19 19 18 18 17 16 16 17 18 19 20 19 19 19 18 15 14 15 17 19 21 19 16 16 16
41 41 41 40 41 42 44 43 43 42 42 41 40 39 39 39 39 38 37 37 37 37 37 37 36 36 36 36 36 36 36 38 39 40 40 40 40 39 38 37 37 37 36 36 36 36 34 33 32 32 32 31 29 27 24 22 22 23 22 19 19 19 17 17 16 15 16 17 19 21 20 20 19 19 19 15 14 15 16 16 18 18 17 17 17
41 40 40 41 43 44 43 42 41 41 39 38 39 39 38 38 37 36 36 37 37 36 36 35 34 34 34 34 35 35 37 39 40 40 40 39 39 38 37 36 37 37 36 36 36 35 34 33 32 30 30 31 30 27 24 23 22 23 22 20 20 19 17 16 15 15 16 18 20 20 19 20 21 21 19 16 15 17 17 15 16 18 18 18 18
41 40 40 43 44 42 41 41 40 39 38 38 38 38 37 36 35 36 36 36 35 34 34 33 33 34 34 34 34 35 38 40 41 41 41 40 38 37 36 36 37 37 37 36 35 33 32 32 31 29 29 30 29 26 25 23 22 22 21 20 20 19 16 15 14 15 16 17 19 19 17 19 23 22 18 16 16 17 17 16 17 18 17 18 17
41 41 43 44 42 41 41 40 39 39 39 38 37 37 36 35 34 35 35 34 34 33 33 33 34 34 35 35 35 37 39 41 41 41 40 40 38 37 36 37 38 38 38 36 34 31 30 30 29 28 28 29 28 25 25 24 23 22 21 19 19 18 16 15 15 15 16 17 19 19 17 19 23 21 16 16 17 17 17 16 17 18 17 14 13
40 42 42 41 39 40 40 40 39 39 39 38 37 36 35 34 34 34 34 34 33 33 33 34 35 35 35 36 36 38 40 41 40 40 40 39 39 38 37 37 38 38 38 36 33 30 29 29 28 28 29 30 27 25 25 25 23 21 20 18 17 16 15 15 14 15 16 17 18 18 17 18 20 19 16 16 17 16 16 15 16 17 17 14 13
39 40 40 38 38 40 39 39 39 39 39 39 37 35 34 34 34 35 34 34 34 34 35 35 35 35 36 36 38 40 40 40 39 39 39 39 39 39 38 38 38 38 37 35 33 32 32 30 29 28 28 28 26 25 25 24 22 20 18 17 16 15 15 14 13 14 16 15 16 17 17 16 17 18 17 15 15 15 15 15 16 16 16 16 17
39 39 38 38 39 38 38 39 39 39 38 37 35 34 34 35 36 35 34 34 34 35 36 36 36 37 37 37 39 39 39 39 38 38 39 39 39 39 40 39 38 37 36 35 35 35 34 32 31 29 26 24 25 26 25 24 21 20 18 17 16 16 14 13 13 15 15 14 15 17 17 16 16 17 16 14 15 15 15 16 16 16 15 16 17
37 37 37 37 38 38 38 39 39 37 36 35 34 35 36 36 36 36 35 35 37 37 37 37 37 38 38 38 38 38 38 38 38 38 39 39 38 39 40 39 37 34 34 33 34 35 34 32 31 29 25 25 26 27 26 24 21 19 18 17 16 15 13 12 13 13 12 11 12 15 17 16 15 14 14 13 12 12 11 12 12 13 15 15 16
34 34 34 35 36 37 39 39 37 36 34 34 35 36 37 37 37 37 36 37 37 37 36 37 38 38 38 38 38 37 37 37 38 39 39 38 38 39 39 38 34 32 32 32 32 33 31 30 29 27 25 26 28 27 26 24 21 19 17 16 15 14 12 12 12 11 10 10 13 15 16 14 11 10 9 8 7 7 7 9 10 11 13 14 14
34 34 35 36 37 37 38 37 36 35 34 35 37 38 38 39 38 38 38 37 37 37 37 37 37 38 38 38 38 37 37 37 38 38 37 37 37 37 38 36 33 31 32 32 31 30 29 29 29 26 24 28 29 27 26 23 20 18 16 15 14 13 12 11 10 9 10 11 12 12 10 8 6 6 6 6 8 9 10 12 13 12 12 10 9
34 36 37 39 39 39 39 37 35 35 36 37 38 38 39 39 39 39 39 38 38 37 37 36 36 38 38 38 38 37 37 38 38 37 37 36 35 35 36 36 32 31 31 29 28 28 28 28 27 23 24 29 29 26 24 22 19 17 16 14 13 12 11 10 8 8 9 10 9 8 7 6 8 9 10 11 12 12 13 14 12 10 9 7 7
35 36 38 40 40 40 39 38 36 36 38 40 40 40 40 39 39 39 39 38 36 36 36 36 36 37 37 37 38 37 37 38 37 36 35 33 31 33 34 33 30 29 29 27 25 25 25 26 25 24 26 29 27 24 22 20 18 16 14 13 12 11 11 10 8 8 8 8 7 8 9 11 13 14 14 13 13 12 11 9 6 5 5 6 8
37 39 39 38 37 38 38 39 40 40 41 42 41 40 40 38 37 38 37 36 35 35 36 36 35 35 35 35 36 36 37 36 35 34 32 29 28 30 32 31 29 28 27 26 25 24 24 25 26 26 27 27 24 21 20 18 16 15 13 12 12 12 11 10 9 9 8 7 7 9 12 14 14 13 12 10 8 6 5 3 3 5 6 8 10
40 40 38 35 35 37 39 41 43 44 43 42 40 40 39 38 38 37 36 35 34 34 34 34 32 32 33 34 34 35 36 35 33 30 27 25 26 29 31 31 29 28 26 25 25 25 25 26 28 28 26 23 21 20 19 18 15 13 12 12 12 12 10 9 8 8 6 7 9 11 12 11 10 7 6 4 2 2 3 4 6 8 9 10 11
38 37 35 34 35 36 39 41 42 42 41 40 39 39 39 38 37 36 35 34 33 32 30 30 29 27 27 29 31 31 31 31 29 27 25 24 25 28 30 29 28 27 26 24 24 24 24 26 28 27 23 20 19 19 18 16 13 11 11 11 11 11 9 8 7 6 6 8 9 8 7 6 4 2 2 1 2 4 6 7 8 9 11 12 11
31 30 30 32 34 36 39 39 39 39 38 38 38 37 36 36 35 34 33 31 29 26 26 26 25 23 22 22 24 26 26 26 25 24 23 23 23 25 27 26 26 26 25 24 24 24 23 25 27 24 21 19 19 19 16 13 11 11 10 10 10 9 9 8 6 6 6 7 6 4 4 3 2 2 2 3 5 7 9 9 10 12 13 13 12
25 26 28 31 34 36 37 38 38 37 36 36 35 32 33 33 32 30 30 28 25 22 21 21 20 17 16 16 17 21 23 24 23 22 22 21 22 24 25 24 24 23 23 23 23 23 24 26 25 22 20 20 19 16 13 11 10 10 9 9 9 9 8 7 6 6 6 5 4 4 3 3 4 5 6 7 8 10 12 12 13 14 14 13 12
22 26 28 31 33 34 35 36 37 36 35 34 33 32 32 30 28 27 28 28 28 25 23 23 22 19 16 13 15 19 21 22 22 21 20 21 22 23 24 24 22 20 21 22 22 23 24 25 22 20 20 18 15 13 11 10 10 10 9 10 10 10 8 7 7 7 7 7 7 6 5 5 6 8 9 10 12 12 12 14 14 14 12 11 11
24 27 29 31 33 34 33 33 34 35 36 37 38 37 36 33 32 32 33 32 32 31 30 30 28 27 25 23 21 21 21 21 22 22 21 22 23 23 22 21 20 20 20 21 21 22 23 22 20 19 17 15 12 11 11 10 10 10 11 12 11 10 9 8 9 9 9 9 9 8 8 8 9 10 11 13 13 12 12 14 14 12 10 11 12
26 28 30 33 33 33 33 33 34 36 37 38 38 37 38 38 36 35 35 35 33 33 34 34 31 29 28 28 26 25 24 23 23 23 23 23 23 23 23 21 21 22 21 20 21 22 22 20 18 16 14 13 12 11 11 11 11 12 13 12 11 10 9 9 10 11 11 11 11 11 11 10 11 13 13 12 11 11 12 12 12 10 10 12 14
26 27 29 30 30 31 33 33 32 32 33 34 34 34 36 38 38 38 39 40 38 35 33 32 31 30 30 31 30 28 26 25 25 25 26 26 26 26 25 24 24 23 21 20 21 21 20 18 17 15 14 14 14 13 12 12 13 13 13 12 10 10 10 11 11 13 13 13 14 13 12 12 13 12 10 9 10 10 10 10 10 10 10 11 13
19 22 25 27 29 31 33 35 35 34 32 31 32 33 37 39 40 42 44 46 46 45 41 37 35 35 35 36 35 30 27 28 28 27 27 27 28 28 27 26 25 23 21 21 21 20 19 18 17 17 16 16 16 15 14 14 14 14 13 12 12 12 12 13 14 15 15 15 15 15 14 12 11 9 8 9 11 10 9 9 9 10 10 10 11
13 17 21 25 29 32 33 35 36 37 37 37 35 32 33 35 36 36 37 38 40 43 42 39 38 39 39 38 34 29 28 30 29 27 27 27 27 27 26 24 22 21 21 21 20 20 20 19 18 18 18 18 17 16 15 15 15 14 14 14 14 14 14 15 16 16 16 16 16 15 13 10 8 7 8 11 11 10 8 8 9 9 9 10 11
9 11 14 18 23 28 30 32 34 35 37 40 40 35 29 25 25 28 32 35 35 35 34 34 35 38 38 35 30 25 24 27 27 26 27 27 27 25 23 21 21 21 22 21 21 21 22 21 20 19 18 18 17 15 14 14 15 14 14 15 15 16 17 18 18 18 18 17 16 14 11 9 8 9 10 11 10 9 8 8 8 8 8 10 12
8 7 7 7 11 17 21 25 29 33 35 36 37 38 35 29 26 26 28 29 29 29 31 32 34 35 33 31 29 24 21 23 26 27 27 28 27 25 23 22 21 21 21 21 22 23 22 21 21 20 18 16 14 13 13 14 15 15 14 14 15 17 18 19 19 19 18 16 14 12 11 9 10 10 10 10 9 9 8 8 7 8 9 11 13
13 12 13 14 12 8 9 12 15 22 30 36 37 37 36 32 29 31 32 30 26 25 26 29 31 30 27 25 25 22 21 25 28 28 27 27 26 24 23 22 22 22 23 23 23 22 22 21 20 19 17 15 13 12 13 14 14 14 14 15 16 17 17 17 16 16 14 12 12 12 10 10 10 10 9 9 9 9 8 6 7 8 10 12 13
6 5 5 6 10 12 8 4 3 10 17 27 35 34 33 34 32 31 32 31 27 24 23 24 25 23 22 21 20 21 24 28 28 27 26 25 24 24 24 24 23 23 24 25 23 22 21 21 19 18 16 14 13 13 13 13 12 12 13 14 14 13 12 12 13 12 12 12 12 11 10 9 10 10 10 9 8 7 6 5 7 9 11 12 13
2 2 2 1 2 8 11 5 6 10 17 11 25 31 31 35 37 33 29 26 23 22 22 22 21 21 22 22 21 22 25 27 26 25 24 24 24 25 25 25 26 26 26 25 24 23 22 21 19 17 15 14 13 13 12 12 12 12 11 10 8 8 8 9 10 11 12 12 11 10 9 10 11 11 10 8 7 5 5 6 8 9 10 11 13
7 6 5 4 6 4 5 8 9 5 8 7 26 32 29 30 33 35 34 29 24 24 24 23 22 22 22 24 23 23 24 25 24 24 24 25 25 26 27 28 28 29 28 26 24 23 22 21 19 17 15 14 13 12 12 12 11 10 9 8 8 8 9 9 11 12 12 11 10 10 10 11 11 10 8 6 5 4 5 7 8 9 9 11 12
13 12 10 8 9 10 10 10 11 9 10 19 28 30 28 27 28 32 34 30 28 27 26 24 24 24 23 23 23 23 23 24 24 24 23 23 24 26 28 30 30 29 28 27 26 24 22 20 18 16 15 14 14 14 14 14 12 11 9 9 9 10 10 11 12 12 12 10 10 11 10 10 9 8 6 5 5 4 5 7 8 8 9 10 12
17 15 14 12 11 12 15 16 16 17 20 22 24 25 26 25 25 28 29 29 29 28 26 24 25 25 25 24 24 24 25 25 25 24 23 24 25 27 28 29 29 29 28 28 27 25 23 20 17 16 16 16 16 16 16 15 13 12 12 12 12 12 12 13 13 13 12 11 11 11 10 9 9 8 6 6 6 5 6 7 8 8 9 10 12
17 18 17 14 12 14 17 18 18 20 22 21 21 22 22 22 22 24 25 26 26 26 25 24 24 26 27 27 26 27 28 27 26 26 26 26 27 28 28 27 27 26 26 26 26 24 22 20 18 17 18 18 17 17 17 16 15 14 14 14 14 15 15 15 15 13 12 12 13 13 11 10 10 9 7 7 6 6 7 7 8 8 9 11 12
14 16 16 14 11 13 17 18 18 19 21 21 20 21 20 20 21 24 25 25 24 24 25 25 24 26 29 29 28 29 29 27 26 27 28 28 29 29 27 24 23 22 21 22 23 23 22 21 20 19 18 18 18 18 18 17 16 16 16 16 16 17 17 16 14 12 12 13 14 13 12 12 12 11 9 7 6 6 7 8 8 9 9 11 12
14 13 13 13 13 14 16 18 18 19 20 20 20 20 20 20 22 24 25 24 23 23 23 23 25 28 29 28 27 28 27 27 27 28 29 30 31 30 26 23 21 19 18 19 20 21 20 21 22 21 19 18 19 19 18 17 17 17 17 17 17 17 17 16 14 12 12 13 14 13 12 12 12 11 10 8 7 7 8 9 9 9 9 10 12
14 15 14 14 15 16 16 16 17 19 20 20 20 20 20 22 23 24 24 23 23 24 23 23 25 28 28 27 27 26 25 26 28 29 29 30 30 28 25 23 21 19 18 18 18 19 19 20 22 22 20 19 20 20 18 18 18 18 18 18 18 18 17 15 14 13 12 13 14 13 12 12 13 12 10 8 7 8 9 10 9 8 9 10 11
8 14 16 16 16 16 16 16 17 18 19 20 20 21 22 24 25 25 25 25 25 26 25 24 25 27 27 27 26 24 23 24 27 28 28 28 27 26 24 23 21 18 17 15 15 16 17 18 20 21 20 20 21 20 19 19 19 19 19 19 18 18 17 15 14 14 13 13 13 12 12 13 13 12 10 8 8 8 9 9 8 8 10 10 11
6 10 10 9 10 12 13 15 17 18 19 20 21 21 23 24 24 24 24 24 24 25 25 25 25 25 25 26 25 24 22 22 24 25 26 26 25 24 23 22 20 18 16 15 14 15 17 18 18 18 18 19 20 20 18 18 18 18 19 20 19 19 18 16 14 13 13 13 13 13 13 14 13 11 9 8 8 9 10 9 9 9 10 10 10
7 12 13 11 10 10 9 9 11 14 17 19 20 21 21 21 21 21 21 21 22 22 22 23 24 25 25 26 26 25 23 22 22 23 23 22 21 21 21 21 20 19 18 17 15 15 16 18 19 18 18 20 21 20 18 18 18 19 19 20 20 19 16 14 12 11 11 13 14 14 14 13 11 9 8 8 9 11 11 10 9 9 9 9 10
7 11 13 13 14 13 11 8 7 9 11 13 14 14 16 17 18 18 18 19 20 21 22 22 23 24 26 28 28 26 23 22 20 20 19 18 18 19 19 20 20 20 19 18 15 14 15 17 18 19 20 21 20 19 18 18 18 19 19 18 16 14 12 9 9 10 12 14 14 13 12 11 9 9 9 10 11 12 11 9 9 8 8 8 10
9 11 11 10 10 9 9 8 8 7 8 8 7 7 8 12 14 15 16 18 19 20 22 23 24 25 27 28 29 27 24 21 19 18 17 16 16 17 17 18 18 18 19 18 17 16 16 17 18 20 20 21 20 19 18 18 19 19 18 15 13 10 9 8 8 9 11 12 11 10 9 9 9 10 11 11 12 11 9 8 8 7 7 8 10
10 10 10 9 6 4 3 4 6 7 6 7 7 7 7 9 11 13 16 18 18 17 17 19 23 26 27 28 27 26 23 21 19 18 17 16 16 16 15 15 15 16 17 17 17 17 18 20 21 21 21 21 20 20 20 20 20 18 16 12 9 8 7 7 8 9 9 9 8 7 7 8 9 10 11 11 10 9 9 8 7 7 7 8 9
11 10 11 11 10 8 6 5 6 6 6 7 9 11 12 12 12 11 12 15 17 18 16 15 17 22 26 28 27 25 23 21 19 18 18 17 16 15 15 15 15 16 17 17 19 20 21 22 22 22 22 22 20 20 21 21 20 17 13 9 7 6 7 8 9 8 8 7 6 6 7 8 9 9 9 9 9 9 9 8 7 6 7 7 8
10 10 11 12 12 12 11 11 11 10 8 8 10 14 16 16 15 13 12 12 14 18 18 16 16 20 24 26 26 24 22 20 18 17 17 16 16 15 15 15 16 18 19 19 21 23 24 23 23 22 22 22 21 21 22 21 18 15 11 8 5 5 8 9 9 7 7 7 7 7 8 9 9 9 8 8 9 9 9 8 7 7 6 6 6
10 10 11 11 11 11 11 13 14 13 11 10 9 10 11 13 13 14 14 14 15 17 19 19 20 22 23 23 23 21 20 19 18 16 16 16 15 15 15 15 17 19 21 22 23 25 25 25 24 23 23 23 23 22 22 20 16 14 12 10 7 5 7 9 9 7 7 7 7 8 9 10 10 9 8 9 9 9 9 7 6 6 5 4 6
Wind_Direction
203 204 206 207 209 210 211 211 212 212 212 212 213 216 218 220 221 223 223 223 222 221 222 222 222 221 219 219 219 220 222 223 224 224 223 226 228 230 230 228 229 232 232 233 233 232 233 232 233 232 232 235 236 237 240 238 234 233 234 234 233 233 235 230 228 243 251 248 250 256 260 269 275 275 278 281 280 284 290 292 292 293 296 297 298
202 204 206 207 209 210 211 211 211 212 212 212 214 216 218 219 221 222 223 223 222 220 221 221 221 221 219 219 219 220 222 224 224 224 223 225 227 229 229 228 230 231 231 232 232 232 233 234 233 233 232 235 240 242 241 236 236 238 235 235 236 235 237 238 235 238 245 250 258 266 270 274 279 284 288 288 288 291 292 291 289 290 294 296 297
202 204 205 207 209 210 211 212 211 211 211 212 214 216 218 219 219 221 222 223 222 221 221 221 220 220 219 219 220 220 222 223 224 224 223 224 226 227 228 229 230 231 230 231 231 230 232 233 234 232 231 233 237 240 239 236 236 237 235 236 238 238 240 244 242 240 245 255 263 269 273 278 284 289 292 289 288 289 290 289 286 284 288 293 296
202 204 205 208 209 209 211 211 211 211 212 212 214 216 217 218 218 219 221 221 221 220 221 220 220 219 218 219 220 221 221 222 223 224 224 224 225 227 228 230 231 231 232 233 232 230 230 232 233 233 230 230 232 234 232 230 231 232 234 239 239 240 244 247 249 250 254 260 266 270 275 280 285 289 289 287 287 287 289 291 290 288 290 291 293
201 204 206 207 208 209 210 211 211 211 212 213 214 216 216 216 217 218 219 219 220 220 219 219 219 218 219 219 220 221 221 222 222 223 224 225 226 227 229 230 231 233 234 235 234 233 232 232 233 233 231 229 229 230 227 225 227 231 236 239 240 242 245 246 248 252 253 257 265 270 273 277 281 284 283 283 285 287 287 291 293 292 291 292 293
201 203 205 206 207 209 210 211 211 212 213 213 214 216 216 216 216 216 217 218 219 220 219 219 219 219 220 221 221 221 222 222 223 224 225 225 226 227 229 230 232 234 235 236 236 236 235 234 234 233 232 231 229 228 228 228 231 234 236 238 238 240 243 244 246 250 252 257 265 269 271 272 275 278 279 279 281 284 289 295 298 296 292 293 295
200 203 204 205 207 209 210 212 212 212 213 214 215 215 216 215 215 215 216 217 217 218 219 220 220 221 222 222 222 223 222 223 224 225 225 225 225 226 227 229 231 234 236 237 238 239 238 235 234 234 234 234 233 231 231 231 233 234 233 233 234 237 241 243 245 248 252 257 260 263 267 269 270 273 276 275 274 278 288 296 299 298 295 294 294
200 202 203 205 207 209 211 212 213 213 214 214 215 216 216 216 215 215 215 215 217 218 220 221 221 222 222 223 223 223 223 224 225 225 225 225 225 226 226 227 230 233 235 237 238 239 238 236 235 236 236 237 236 235 234 234 232 230 228 230 234 237 240 244 246 248 251 255 258 261 264 267 269 272 274 273 272 281 290 292 291 293 296 293 290
200 202 203 205 208 209 210 211 213 214 214 213 214 216 216 217 216 214 214 215 216 218 220 221 221 221 222 223 223 223 224 226 226 225 225 225 225 226 226 226 229 232 235 237 238 238 237 236 235 236 238 240 239 238 238 238 234 229 229 233 236 236 239 243 245 248 250 250 253 257 260 266 271 273 272 273 279 288 294 289 281 284 289 287 285
199 201 203 206 208 208 208 210 211 212 213 213 214 215 216 217 216 215 215 215 216 217 218 220 221 221 222 222 222 223 225 227 228 227 227 226 226 225 226 227 230 232 235 237 238 237 236 235 235 237 241 241 237 235 236 237 235 235 237 239 235 233 234 239 244 248 248 245 246 251 255 263 270 273 274 280 287 289 290 286 281 281 283 282 283
199 201 205 207 206 205 206 208 209 210 212 213 214 214 214 215 215 215 215 215 215 215 216 218 220 221 222 222 223 224 227 229 229 229 229 229 227 226 227 229 230 232 234 236 236 236 235 233 233 236 240 238 233 232 234 236 235 236 237 235 233 233 234 238 244 246 245 243 246 250 252 259 269 275 281 289 293 292 291 288 283 280 279 276 275
200 204 206 206 204 204 205 206 207 209 210 211 212 213 213 213 214 215 215 214 214 214 215 217 218 220 221 222 223 226 228 230 230 230 230 230 229 228 229 230 232 232 234 234 234 236 237 233 232 235 236 233 231 233 235 236 234 231 230 230 233 238 242 246 250 250 250 249 251 255 257 261 272 281 287 293 296 296 295 290 284 280 276 269 264
202 205 206 205 204 204 204 204 206 208 209 209 210 210 210 212 213 214 215 214 213 213 214 216 217 218 219 221 224 227 229 230 230 231 232 231 231 231 231 232 234 233 233 233 232 236 238 233 230 232 231 228 231 235 233 228 224 223 226 230 235 240 245 251 255 256 258 259 259 265 270 271 277 286 292 297 297 294 291 288 287 284 278 271 271
203 205 205 204 204 204 203 204 206 207 208 207 207 207 209 211 213 214 214 213 212 213 213 214 215 217 218 221 224 227 229 230 230 232 233 233 233 233 232 234 234 234 234 234 232 235 236 232 229 229 226 224 228 230 226 220 217 219 223 228 235 240 245 252 257 260 263 266 267 274 281 284 285 288 292 294 292 289 287 288 289 286 280 277 278
203 205 204 204 204 203 202 205 206 206 205 204 204 206 208 210 211 212 212 212 213 213 213 213 214 216 218 221 223 226 228 229 231 232 233 234 235 234 233 232 232 233 234 235 236 237 235 231 228 224 221 224 227 224 220 218 217 217 220 229 238 244 249 257 265 271 276 277 277 283 289 290 287 285 285 285 285 284 283 285 285 283 281 280 281
203 204 204 205 205 203 203 204 205 204 202 202 203 205 207 209 210 210 211 212 213 213 213 213 214 215 218 220 222 226 228 230 232 233 234 235 235 233 231 229 229 231 233 235 237 237 233 230 225 219 219 227 227 221 220 221 218 217 223 232 240 247 256 266 275 284 289 291 292 291 290 288 285 282 284 286 285 286 283 281 281 279 281 285 288
202 203 204 205 205 206 205 204 203 201 200 201 203 205 207 208 209 209 209 210 211 212 212 213 213 215 217 218 221 224 227 230 232 233 234 235 233 230 228 226 225 228 232 234 235 235 234 230 221 215 224 230 226 221 223 223 219 221 226 233 240 251 263 272 279 284 288 293 295 290 284 284 281 280 285 289 289 289 285 283 284 282 283 287 289
204 203 204 204 204 205 205 205 203 200 199 202 205 206 207 208 208 208 209 209 210 211 211 212 214 215 216 217 219 221 225 229 231 232 234 234 230 227 226 224 222 225 229 232 233 234 234 226 216 218 232 233 226 222 221 219 218 222 227 233 244 255 264 273 281 286 294 300 293 276 270 279 286 289 291 290 288 285 281 279 279 275 276 276 276
206 205 206 206 204 204 203 203 202 201 202 204 206 206 207 208 208 208 209 209 210 211 211 212 214 215 216 217 219 220 224 228 230 231 232 230 227 226 224 219 218 221 224 227 229 230 230 222 215 223 233 228 220 217 216 217 221 223 228 235 244 254 264 276 285 292 298 295 278 269 278 289 295 299 298 294 290 284 277 273 269 266 276 285 287
207 209 209 207 205 204 202 202 203 203 204 205 206 207 208 208 207 208 208 209 209 210 211 212 213 214 215 216 218 220 223 227 229 229 228 226 223 222 220 215 213 215 218 221 222 224 224 216 212 219 222 217 214 215 215 218 221 222 228 236 244 256 267 275 282 289 292 285 276 284 293 298 301 302 298 293 289 279 270 274 295 307 308 306 305
208 209 209 206 205 205 203 203 204 205 206 205 204 206 207 206 206 206 206 206 207 209 210 210 211 213 213 214 217 220 222 226 227 224 221 220 219 217 216 215 213 213 214 215 218 220 216 207 207 213 213 210 214 215 212 214 218 223 232 241 250 262 268 270 276 281 283 286 290 296 302 307 310 305 293 282 264 252 275 292 304 312 314 313 310
209 208 207 205 205 205 205 206 206 207 207 205 203 204 205 205 205 205 203 203 204 205 205 205 205 207 209 211 214 217 219 223 224 219 213 212 212 214 215 216 216 214 210 209 213 215 210 203 205 209 207 204 206 205 205 212 221 229 239 247 255 263 264 264 267 268 275 285 295 306 319 328 326 295 245 241 256 277 289 295 303 312 316 315 310
212 209 206 204 205 205 206 207 207 207 207 204 203 203 202 202 203 202 200 199 198 196 195 195 194 192 193 198 204 208 211 214 214 211 207 205 208 212 214 215 215 213 210 210 213 211 204 201 204 204 201 197 196 199 208 219 228 234 242 250 254 255 255 257 254 255 270 283 290 306 330 335 315 272 263 279 285 292 298 300 303 308 311 310 307
213 209 206 205 206 206 206 206 206 207 206 204 202 201 199 199 199 196 193 189 182 177 176 175 171 166 165 174 187 195 199 201 202 202 202 203 205 209 211 212 212 212 213 217 216 208 200 200 201 198 194 193 195 204 216 222 228 237 243 245 245 242 241 243 242 248 259 259 250 255 275 290 286 281 283 288 289 293 297 297 298 303 306 305 304
211 209 207 207 208 206 205 205 205 204 203 200 199 198 196 192 186 181 179 175 166 158 152 150 148 146 151 167 182 187 190 192 192 194 198 202 204 205 207 209 209 211 214 215 211 205 203 201 195 190 191 193 198 208 214 218 228 236 236 231 230 229 229 228 230 235 237 231 232 244 258 272 278 281 288 292 293 294 295 294 296 301 303 302 305
207 208 207 208 208 205 203 202 201 200 199 198 197 195 191 185 177 173 170 167 161 155 151 152 158 165 173 182 185 183 183 187 188 188 192 197 198 199 201 203 203 205 207 205 201 200 198 194 188 187 189 193 198 204 210 221 229 227 220 219 220 221 220 219 220 224 225 227 235 247 260 272 282 288 291 293 293 294 293 293 297 302 305 308 313
202 203 204 205 205 202 198 196 196 195 195 194 193 190 186 181 175 171 168 165 162 161 162 165 171 174 174 176 177 175 175 179 184 186 187 187 188 191 193 193 192 194 193 190 190 190 187 183 183 185 187 191 198 205 212 219 219 213 211 214 218 218 215 216 222 226 228 234 244 253 263 277 287 292 292 289 288 289 290 293 298 305 313 319 323
198 197 197 197 196 193 191 190 188 187 188 187 184 181 179 178 174 174 175 173 168 168 171 174 176 175 171 170 169 166 170 179 188 191 190 186 183 184 185 186 187 187 184 180 180 181 180 179 180 184 189 194 198 203 209 211 208 207 210 215 219 218 216 221 228 231 235 243 250 257 269 282 288 290 289 285 284 287 289 292 297 305 317 326 329
193 188 184 182 182 182 183 182 181 179 176 176 175 175 177 179 178 179 182 182 180 179 178 178 180 178 173 170 167 163 170 187 195 196 193 188 183 182 183 183 184 184 183 182 180 177 177 180 182 185 190 194 197 202 207 208 206 209 215 219 220 220 223 230 235 239 244 249 255 264 274 280 279 279 282 283 285 286 285 288 298 310 323 332 333
181 180 178 177 178 179 179 180 179 175 170 167 166 167 172 178 181 180 178 180 184 186 183 181 182 179 173 172 174 177 186 193 194 191 190 187 184 184 183 183 183 184 184 186 184 179 178 181 183 186 190 194 198 203 207 210 212 216 222 225 227 229 232 238 243 249 252 255 261 267 269 265 261 266 272 276 277 277 278 290 307 319 331 338 335
182 191 195 193 187 182 180 180 177 174 171 169 165 156 149 153 162 166 170 175 182 187 188 187 186 183 177 172 171 177 189 192 187 185 185 184 182 183 183 183 186 186 185 183 181 178 179 180 183 189 194 198 203 209 212 214 218 226 233 238 240 241 243 246 250 253 255 259 261 257 249 243 249 261 266 267 270 276 284 299 314 325 336 340 333
38 11 335 290 232 203 190 186 182 176 172 171 166 156 143 132 126 134 152 167 175 180 185 184 183 184 183 174 165 165 177 183 181 181 183 182 181 183 185 186 188 188 186 184 181 180 182 185 189 194 199 203 208 213 216 219 226 236 245 252 255 255 254 254 255 256 256 254 246 234 227 233 247 257 262 265 274 288 298 308 321 330 332 331 329
51 35 16 354 325 277 211 193 196 192 182 174 167 159 152 141 128 125 133 143 153 163 171 175 177 180 176 168 164 167 172 175 176 176 179 180 181 183 187 189 190 189 187 186 185 185 189 194 199 202 204 207 212 216 220 227 235 245 256 263 267 268 267 264 260 256 247 233 221 217 222 237 250 258 263 271 282 293 301 311 323 329 329 328 329
52 51 52 14 335 319 295 222 237 272 234 191 166 154 148 142 133 127 125 128 135 144 152 160 169 169 160 154 159 166 168 170 173 174 176 178 180 185 189 190 190 192 193 195 197 197 198 201 205 206 208 212 215 219 223 231 242 253 261 265 267 267 264 257 248 236 218 205 206 215 230 246 257 261 264 270 278 284 294 310 323 327 330 331 332
359 16 56 78 345 333 330 359 54 336 293 213 144 132 133 132 129 125 120 119 124 130 135 142 150 151 148 147 151 156 162 166 168 171 176 180 182 186 190 189 189 192 197 202 206 207 206 206 207 208 211 213 213 216 224 233 241 246 247 247 245 240 235 228 216 204 198 199 208 226 247 257 258 257 257 262 265 271 291 314 324 327 332 335 336
142 132 107 114 143 127 16 35 64 16 317 79 100 104 111 117 119 120 120 123 128 129 128 131 135 139 145 147 147 150 157 164 167 170 177 182 184 186 189 190 191 195 198 202 206 209 210 210 210 210 210 208 206 212 219 221 220 219 217 220 227 226 220 209 198 195 200 210 226 244 253 253 249 245 243 245 250 268 300 317 322 325 332 337 337
129 128 126 134 146 140 123 106 99 88 69 77 87 94 99 104 110 115 119 126 133 131 129 129 131 134 140 147 150 152 157 164 169 172 177 183 187 190 193 194 194 195 198 200 204 206 208 210 212 210 204 198 198 203 204 201 200 202 206 216 221 218 211 206 203 206 215 227 238 241 237 232 228 224 224 235 251 276 302 314 318 322 328 334 335
125 127 127 129 134 129 121 118 112 100 89 85 90 97 101 105 110 115 120 128 132 131 131 134 135 137 141 148 155 158 160 163 168 172 177 183 187 191 196 198 197 197 200 201 203 205 206 207 207 202 195 191 193 196 197 197 199 203 204 205 205 204 205 205 207 213 224 231 228 222 217 214 214 216 226 244 256 277 297 304 311 319 324 330 333
122 131 131 127 127 125 121 116 111 106 104 102 102 105 108 112 115 117 121 126 130 133 137 140 143 147 151 154 158 160 160 163 169 174 178 184 187 190 195 199 200 201 204 204 204 205 206 204 198 193 191 192 195 198 199 200 202 202 201 198 197 198 201 204 207 214 223 224 219 216 218 219 215 217 229 239 250 274 292 297 305 314 320 325 330
124 130 133 132 129 124 120 117 113 111 112 113 114 116 118 121 122 126 129 132 136 142 145 147 150 156 159 161 163 163 162 165 172 177 181 185 189 191 195 199 202 204 208 209 207 207 205 200 193 190 192 196 198 200 202 202 202 201 201 201 202 203 204 206 210 214 217 218 218 220 223 220 216 218 226 234 248 273 288 294 301 307 313 320 327
137 133 133 137 139 131 122 121 124 123 122 124 126 126 128 130 132 135 137 139 142 144 145 148 154 159 162 166 168 169 170 173 178 183 187 189 191 193 196 200 203 206 210 211 209 207 203 198 194 194 197 200 201 202 203 203 203 203 204 206 208 209 208 207 208 210 212 215 219 223 225 222 220 220 224 233 250 272 286 294 297 300 307 316 324
140 142 146 149 148 142 134 132 134 134 133 134 134 134 135 137 138 139 140 141 143 143 144 149 155 159 162 166 170 173 178 181 184 187 190 192 193 195 197 200 202 205 211 213 210 208 205 200 199 201 204 205 204 204 203 204 205 206 208 210 210 209 208 207 205 207 212 218 225 230 229 223 219 218 222 235 258 278 289 292 292 295 305 312 319
144 151 155 158 156 152 149 146 143 140 140 141 142 144 146 146 147 148 148 147 149 150 150 154 159 161 163 167 172 177 181 185 188 190 191 193 194 196 197 199 202 205 208 209 208 208 208 206 206 209 211 211 208 206 206 207 209 210 212 213 211 209 209 208 208 211 217 224 229 229 222 214 212 215 224 243 267 285 292 291 287 293 303 310 316
140 133 134 142 148 147 148 150 150 151 152 151 150 153 156 156 156 157 156 155 158 161 160 162 166 168 167 169 175 182 186 190 192 193 194 195 196 196 198 199 200 200 199 197 198 203 209 211 211 212 212 210 208 208 210 212 214 215 215 214 212 210 211 212 215 219 224 227 225 219 212 209 210 218 232 254 276 289 292 287 283 290 301 308 315
122 101 92 92 99 107 118 134 146 155 159 159 159 162 164 164 164 165 165 164 165 166 167 169 173 174 174 176 180 184 189 193 195 196 195 196 196 198 200 201 200 197 194 191 193 199 203 206 209 211 209 206 205 206 208 210 213 217 219 217 215 213 214 217 222 227 229 227 222 216 212 212 218 229 246 266 283 291 290 282 278 287 300 308 316
91 86 85 87 90 93 98 112 135 154 163 164 163 165 169 172 173 173 173 171 169 170 172 175 178 179 179 181 183 187 190 192 193 194 194 194 195 198 201 201 201 201 199 198 200 202 202 204 209 210 204 198 197 199 202 207 212 215 216 215 215 216 219 225 231 230 225 221 219 217 217 222 232 248 263 275 284 287 283 272 270 282 296 305 318
80 84 87 88 89 94 105 122 139 155 167 169 162 162 174 178 174 171 173 175 175 175 176 179 181 182 183 184 186 188 190 190 189 186 185 187 189 193 196 198 200 203 206 209 212 212 208 206 205 201 196 194 195 198 203 209 211 209 206 206 211 222 232 235 229 220 214 213 216 221 230 242 255 263 271 277 279 276 267 258 261 276 291 303 317
83 88 93 96 102 114 128 132 133 143 164 172 159 148 157 162 158 162 172 175 169 166 171 179 182 183 183 184 187 187 186 185 183 180 178 178 179 181 185 188 192 197 202 204 205 204 201 198 197 197 198 200 202 203 206 207 204 200 200 206 217 230 231 217 203 196 199 207 219 234 251 265 270 270 271 272 267 257 250 247 253 269 286 301 314
80 87 93 96 102 116 132 137 132 138 161 169 151 139 144 152 154 161 171 170 162 162 171 182 184 181 179 179 181 182 181 179 180 180 179 177 176 176 177 181 187 193 194 192 192 193 194 196 199 203 205 206 205 206 208 205 200 197 200 205 215 223 214 197 188 189 196 208 229 251 268 281 281 274 269 264 254 244 241 241 250 272 289 301 313
64 75 83 87 95 110 123 123 115 112 121 138 138 137 143 154 163 170 174 171 166 169 175 179 180 180 179 177 176 178 178 178 180 184 185 183 180 179 180 183 189 193 194 193 192 194 198 202 206 208 208 208 208 209 208 204 198 196 195 192 194 206 203 193 190 198 208 221 242 261 277 288 286 275 266 258 247 237 234 236 251 274 290 301 316
50 60 71 79 89 103 112 114 112 112 117 127 133 135 140 150 161 172 178 179 174 172 173 178 183 186 184 179 176 177 179 181 184 189 191 191 192 193 196 199 201 201 201 201 201 203 206 208 210 211 211 210 209 208 207 203 196 191 191 190 189 190 189 186 190 201 215 233 252 267 281 287 283 271 263 256 240 227 226 236 254 270 286 306 322
Height
734 736 739 742 745 747 750 753 756 760 762 764 766 768 770 772 775 779 781 783 785 786 788 790 792 794 796 799 801 803 805 806 808 810 811 813 814 816 818 819 820 820 821 822 822 824 825 826 827 828 830 831 832 833 834 835 836 837 837 838 838 839 840 840 841 841 841 841 841 841 841 841 841 842 842 842 843 843 842 842 842 841 841 840 840
729 732 735 739 741 743 747 750 753 756 759 761 762 764 766 768 772 775 778 780 782 784 785 787 790 792 794 796 799 801 802 804 806 808 810 811 813 815 816 817 817 818 819 819 820 822 824 825 826 827 829 830 831 833 834 834 835 836 837 837 838 838 838 839 839 839 840 840 840 840 840 840 840 841 841 841 842 842 841 841 840 840 839 839 838
725 729 732 734 737 741 744 747 749 752 755 757 758 760 762 764 768 771 774 777 779 781 783 785 787 789 792 794 796 798 800 802 804 806 808 809 811 812 813 814 814 815 816 817 819 821 822 823 825 826 827 829 830 831 832 833 834 835 835 836 837 837 838 838 838 838 838 838 839 839 839 840 840 840 840 840 840 840 839 839 838 838 838 837 837
723 726 728 730 734 737 740 743 746 748 750 752 754 756 758 761 764 767 770 774 777 779 781 783 785 787 789 791 793 795 797 800 802 804 805 807 808 809 810 811 812 813 814 815 817 819 820 821 822 824 825 827 828 829 831 832 832 833 834 835 835 836 837 837 837 837 837 837 838 838 839 839 838 839 839 838 838 838 838 837 836 836 836 836 835
719 722 724 728 731 733 736 739 741 743 745 747 750 752 755 758 760 763 767 771 774 777 779 781 783 785 786 788 790 792 795 798 799 801 802 804 805 806 807 808 810 811 812 813 815 816 818 819 820 822 824 825 826 827 828 830 831 832 833 833 834 835 836 836 836 837 837 836 836 837 837 837 837 837 837 837 836 836 836 835 834 834 834 834 833
715 718 721 724 727 729 732 734 736 738 741 743 746 749 752 755 757 760 764 767 771 774 777 779 780 782 784 786 788 790 793 795 797 798 800 801 802 804 805 806 807 809 810 811 813 814 815 817 818 820 821 822 823 824 826 828 829 830 831 831 833 834 834 835 835 836 836 835 835 836 836 836 835 835 835 835 835 834 834 833 832 832 832 831 831
710 713 716 719 722 725 726 728 731 734 737 740 744 747 750 752 754 757 761 764 768 771 773 776 778 780 782 784 786 788 791 793 794 795 796 798 799 800 802 804 805 807 808 809 810 811 812 814 816 818 819 820 821 822 823 825 826 827 828 829 830 831 832 833 834 834 834 834 834 834 833 833 833 833 833 833 833 833 832 832 830 830 830 830 829
705 708 711 714 717 718 721 724 727 731 734 738 742 745 748 750 752 755 758 761 764 767 770 773 776 778 780 782 784 786 788 789 790 791 793 794 796 798 799 801 803 804 805 806 807 808 809 811 813 814 816 818 819 820 821 822 823 824 825 827 828 829 830 831 832 832 832 832 832 832 831 831 831 831 831 831 832 831 831 831 829 828 829 829 828
700 703 706 708 710 712 717 721 724 728 732 736 739 742 745 748 751 753 756 758 760 764 767 771 774 776 778 779 781 783 784 785 785 787 789 791 793 795 797 799 800 801 802 803 804 805 806 808 809 812 814 815 817 818 819 820 821 822 823 824 825 826 828 829 830 830 830 830 830 830 830 829 829 829 829 829 830 830 830 830 828 827 827 827 827
694 698 700 701 704 708 713 717 721 725 729 732 736 739 742 746 749 751 753 755 758 761 765 768 770 772 774 776 778 779 779 780 781 783 786 788 791 793 794 796 797 798 799 800 801 802 803 805 806 809 811 813 814 815 816 818 818 819 821 821 822 824 825 826 827 827 827 827 828 828 829 828 827 827 828 828 828 828 827 827 826 825 825 824 824
689 692 693 694 700 705 709 713 717 721 725 728 732 736 740 744 747 749 751 753 756 758 761 764 766 768 770 772 774 774 775 776 777 780 783 785 788 789 791 792 794 795 796 796 797 799 801 802 804 806 808 810 812 813 814 815 816 817 818 819 820 821 822 824 824 825 825 825 826 827 827 826 826 826 827 826 826 826 825 825 824 824 824 823 822
684 686 687 692 697 700 704 708 712 716 720 724 728 733 737 741 744 746 748 750 752 754 756 758 761 763 766 767 769 770 770 772 774 777 779 782 784 786 787 789 790 791 792 793 795 797 799 800 801 803 805 807 809 810 811 813 814 815 816 817 818 819 820 821 822 822 823 824 824 825 825 825 825 825 825 825 824 824 823 823 823 822 822 822 820
680 682 685 690 693 696 700 704 708 711 715 719 724 729 734 737 740 742 744 746 748 750 751 753 755 758 760 762 764 765 766 768 771 773 776 778 780 782 783 785 786 787 788 790 792 795 796 797 798 800 802 805 807 808 809 811 812 813 815 816 817 818 818 819 820 820 821 822 823 823 824 824 823 823 823 823 822 822 821 821 821 820 820 820 818
675 677 681 686 689 692 697 700 703 707 711 716 721 726 729 732 735 738 740 742 743 744 745 748 750 752 755 756 758 760 762 764 767 769 772 774 776 778 779 781 782 783 785 786 788 790 792 794 795 797 800 803 805 805 807 809 810 811 812 814 815 816 817 817 818 819 819 821 821 821 821 822 821 821 821 821 821 820 819 819 818 818 818 817 816
670 674 678 681 685 689 692 695 699 703 708 713 717 720 723 726 730 732 734 736 737 738 740 742 744 747 749 751 754 756 758 761 763 766 768 770 773 774 776 778 779 781 783 784 785 787 788 790 792 795 799 802 802 803 805 807 808 809 811 812 814 814 815 816 816 817 817 818 819 819 819 819 819 819 818 818 818 818 817 816 816 816 815 815 815
667 671 675 678 682 685 687 691 695 700 705 709 712 714 717 720 723 726 728 730 731 733 735 737 739 742 744 747 750 751 754 757 759 761 764 766 769 771 773 775 777 779 780 781 783 784 786 789 791 794 797 799 800 801 803 805 806 807 809 810 812 812 813 814 814 814 815 816 816 816 816 816 816 816 816 816 816 815 815 814 814 814 813 813 813
662 666 669 673 677 681 684 687 691 696 701 704 706 708 711 713 717 719 722 723 725 727 729 732 734 737 740 743 745 747 750 753 755 757 760 763 765 767 770 772 774 776 777 778 780 782 784 786 789 792 795 797 798 800 802 803 805 806 807 809 810 810 811 812 812 812 813 813 814 814 814 815 815 815 815 815 814 814 813 812 812 812 812 811 811
657 660 663 666 670 675 680 684 688 692 695 697 700 702 705 708 710 713 715 717 719 722 725 728 731 733 735 738 740 743 746 748 751 753 756 759 762 764 766 769 771 773 774 776 778 780 782 784 787 791 793 794 796 798 800 802 803 805 806 807 808 808 809 810 810 811 811 811 812 812 813 813 814 814 814 813 813 812 811 810 810 810 810 810 809
652 655 657 660 664 669 674 679 684 687 689 690 693 696 699 702 705 707 710 713 716 720 723 725 727 729 732 734 737 740 742 744 747 750 753 756 759 762 764 766 768 770 772 774 776 778 780 782 785 788 790 792 795 797 799 801 802 803 804 805 806 806 807 808 808 808 809 809 810 811 811 812 812 812 812 811 810 810 809 809 809 809 808 808 808
647 650 653 657 662 666 670 674 677 680 682 684 687 691 694 697 701 704 706 709 713 716 719 721 723 726 729 731 734 737 739 741 744 747 750 754 756 759 761 763 765 767 770 772 774 776 778 780 782 785 787 790 793 796 798 800 801 802 803 803 804 805 806 806 806 806 807 808 808 809 810 810 810 810 809 809 809 808 808 808 808 807 807 807 806
640 645 649 655 659 662 665 668 670 672 675 678 682 686 689 692 696 699 702 706 710 712 715 718 721 724 726 728 731 733 736 738 741 745 748 751 754 756 757 759 762 765 767 770 772 773 775 777 779 783 786 789 792 794 797 799 800 801 801 802 803 803 804 804 804 805 805 806 807 808 808 808 808 808 808 808 807 807 807 807 807 806 806 805 804
637 641 645 650 655 658 661 664 666 669 672 675 678 681 684 688 691 695 699 702 706 709 713 716 719 722 724 727 729 731 734 737 740 743 746 748 751 753 755 757 760 763 765 768 770 771 773 775 779 782 785 788 791 793 796 797 798 799 800 800 801 802 802 802 803 803 804 804 805 806 806 806 807 806 807 807 806 806 806 805 805 805 804 803 802
636 639 643 647 650 653 657 660 663 666 669 671 674 677 680 684 688 691 696 700 704 708 712 715 718 721 723 726 728 731 733 736 739 742 744 746 749 751 753 755 758 760 763 765 767 769 772 775 779 782 784 787 790 792 794 795 796 797 798 799 800 800 800 801 801 801 802 803 804 804 805 805 805 805 805 805 805 805 804 804 804 803 802 801 800
636 638 641 643 645 648 651 655 659 663 666 669 673 676 679 682 685 689 693 697 702 706 710 713 717 720 724 727 729 730 733 735 738 740 742 745 747 749 751 753 755 758 760 763 765 768 771 774 777 780 783 786 788 791 793 794 795 796 797 798 798 799 799 799 799 800 801 801 802 803 803 804 804 804 804 804 803 803 802 802 802 801 800 799 798
634 635 637 639 642 644 647 651 654 657 662 666 669 673 676 679 682 686 689 693 696 700 705 709 713 717 722 727 730 731 732 735 737 739 742 744 745 747 749 751 753 756 759 761 764 767 770 774 777 780 782 785 787 789 791 792 794 795 796 796 797 797 798 798 798 799 799 800 801 801 802 803 803 803 802 802 801 801 800 800 799 799 798 797 796
629 632 634 636 638 641 643 646 649 652 654 657 660 664 668 672 676 679 682 686 690 693 697 701 705 708 712 718 724 727 730 733 736 738 740 742 744 746 748 750 753 755 758 761 764 767 771 774 776 779 781 784 786 788 789 791 792 793 794 795 795 796 796 797 797 798 798 799 799 800 801 801 801 801 801 800 800 799 799 798 797 796 796 795 793
625 627 628 630 633 635 638 640 642 644 646 648 651 655 659 664 668 672 675 679 683 687 690 693 697 700 704 711 716 720 725 730 734 736 738 740 742 745 747 750 752 755 757 760 764 767 770 773 776 778 780 783 785 787 788 789 791 792 793 794 794 795 795 796 796 796 797 797 798 799 799 800 799 799 799 798 798 798 797 796 795 794 794 792 791
622 622 623 625 628 630 632 634 637 639 642 645 647 650 653 657 661 664 667 670 673 679 683 686 690 694 698 704 709 714 719 725 729 732 735 737 740 743 746 749 752 754 757 760 764 767 770 772 774 777 779 781 784 785 787 788 789 790 791 792 793 794 794 795 795 795 796 796 797 797 797 798 797 797 797 796 796 796 795 795 794 793 792 791 790
623 623 622 623 623 624 626 628 630 633 637 641 644 646 648 651 653 656 659 662 664 667 671 677 683 687 692 697 701 706 713 719 724 729 733 736 739 742 745 748 751 753 756 760 763 766 769 771 773 775 778 780 782 784 785 786 787 789 790 791 792 792 793 793 793 794 794 795 795 795 796 796 796 795 795 795 795 794 794 793 792 791 790 789 788
625 624 623 622 621 621 622 622 623 625 627 631 636 641 644 647 649 652 656 663 667 668 669 674 680 683 687 692 696 700 706 714 722 728 733 736 740 743 746 748 750 753 756 759 762 765 768 770 772 774 776 779 780 782 783 784 786 787 788 789 790 791 791 792 792 792 793 793 794 794 794 794 794 794 794 793 793 793 793 792 791 790 789 788 787
628 628 627 625 622 621 620 620 619 620 621 622 625 631 638 644 648 651 657 664 671 675 677 681 685 687 688 689 692 697 705 714 722 728 733 736 740 743 746 749 751 753 756 759 761 764 767 769 771 773 775 777 778 780 781 782 784 786 787 788 789 789 790 790 790 791 791 791 792 792 792 792 792 792 792 792 791 791 791 790 790 789 788 787 786
633 634 635 634 631 627 623 621 619 618 617 618 620 623 629 637 644 651 658 666 672 677 681 684 688 692 691 687 687 695 706 715 722 727 732 736 739 743 746 749 752 754 757 759 761 764 766 768 770 771 773 775 776 778 779 781 783 785 786 786 787 787 788 788 788 789 789 789 789 790 790 790 791 791 790 790 790 790 789 789 788 788 787 786 785
634 635 636 638 639 636 629 625 624 621 616 613 613 615 619 626 634 641 650 662 674 682 685 687 690 693 691 686 687 696 707 715 721 726 731 734 738 742 746 750 753 755 757 759 761 763 764 766 768 770 771 773 774 776 778 780 782 783 784 785 785 785 786 786 787 787 787 787 788 788 788 789 789 789 788 788 788 788 788 788 787 787 786 785 784
633 633 633 635 640 641 636 630 626 627 624 614 608 611 617 623 629 635 640 651 669 683 688 690 692 692 689 687 691 700 709 716 722 727 731 734 737 741 745 749 753 755 757 758 760 761 763 765 766 768 769 771 773 775 777 779 780 781 782 783 783 783 784 784 784 785 785 786 787 787 787 787 787 787 787 787 787 787 787 787 786 786 784 783 782
635 634 634 634 636 641 642 634 626 630 634 622 607 608 617 623 629 634 640 652 668 681 686 689 690 689 687 689 696 704 711 718 724 728 732 735 737 740 744 748 751 753 755 756 758 760 761 763 764 766 768 770 772 774 776 777 778 779 780 781 782 783 783 783 783 784 785 785 786 786 786 786 785 785 786 786 786 786 786 786 785 784 783 782 781
634 633 634 635 636 639 643 640 634 638 641 627 610 609 620 627 630 633 643 659 674 681 684 685 686 687 689 693 700 707 713 719 724 728 731 734 736 739 743 746 748 750 752 754 756 758 760 761 763 764 766 768 770 772 774 775 776 778 779 780 781 782 782 783 783 784 784 784 785 784 784 784 784 784 784 784 785 785 784 784 784 783 782 781 780
632 632 635 638 639 640 642 642 642 644 641 631 621 622 629 636 638 639 648 664 675 680 681 683 684 687 692 697 702 708 714 719 723 727 730 732 734 737 741 744 746 748 750 752 754 756 758 759 761 763 764 767 769 770 772 773 775 776 778 779 781 781 782 782 783 783 783 784 783 783 783 782 782 782 783 783 783 783 783 783 782 782 781 780 779
633 635 639 642 643 644 644 644 643 643 641 639 637 637 641 645 648 651 657 665 672 676 680 683 685 689 694 698 704 709 713 718 722 726 729 731 733 736 740 743 745 747 748 750 752 754 756 757 759 761 763 765 767 768 770 772 773 775 777 779 780 781 781 782 782 782 782 782 782 782 781 781 781 781 781 781 782 782 782 782 781 780 780 779 778
638 639 642 645 648 648 646 645 645 645 645 647 649 650 651 654 656 659 663 668 672 676 681 685 688 692 695 699 704 708 712 716 720 723 726 729 732 735 738 741 743 745 746 748 750 752 754 756 757 759 761 763 765 767 768 770 772 774 776 777 779 779 780 780 780 781 781 781 780 780 779 779 779 779 779 780 780 780 780 780 780 779 778 777 777
644 645 645 647 650 651 649 649 650 650 650 653 655 657 659 661 662 664 668 671 675 679 683 686 690 694 697 700 704 707 710 714 718 721 725 728 731 734 736 738 741 743 745 747 749 750 752 754 756 758 760 762 763 765 767 768 771 773 774 776 777 778 778 778 779 779 779 779 778 778 777 777 777 777 777 778 778 779 779 779 778 778 777 776 775
648 649 649 650 653 654 652 653 654 654 655 657 659 661 664 666 668 670 673 675 679 683 686 689 692 695 699 702 705 707 710 714 717 720 723 726 729 732 734 736 738 741 743 745 747 748 750 752 754 756 758 760 762 764 765 767 769 771 773 775 776 776 776 776 776 776 776 776 776 776 775 775 775 775 775 776 777 777 777 777 777 776 776 775 774
652 652 653 655 656 656 656 656 657 657 658 660 662 665 667 669 671 674 676 679 682 684 687 691 694 697 700 703 705 708 712 715 717 719 722 725 728 730 732 734 737 739 742 743 745 746 748 750 752 754 756 758 760 762 764 766 768 770 772 773 774 775 775 774 774 774 774 774 774 773 773 773 773 773 774 774 775 776 776 776 775 775 774 774 773
658 656 657 659 659 659 659 660 660 661 662 663 665 667 669 671 673 675 677 679 682 684 687 690 693 696 699 702 705 708 712 715 717 719 721 724 727 728 730 733 736 738 741 742 743 745 747 748 750 753 755 756 758 760 763 765 767 769 771 772 772 773 772 772 771 771 771 771 771 771 771 771 771 771 772 773 773 774 774 774 774 774 773 773 772
662 661 662 663 663 663 664 664 664 665 665 666 667 669 671 672 674 675 677 679 681 684 686 689 691 694 697 701 704 708 711 714 717 719 721 723 725 727 729 732 735 737 739 741 742 744 745 747 749 751 753 755 758 760 762 764 766 768 769 770 770 771 770 769 768 768 768 768 769 769 769 769 769 769 770 771 771 772 772 772 772 772 772 771 770
664 663 664 666 666 667 668 668 668 669 668 668 669 671 672 674 675 676 678 680 682 684 686 688 690 693 697 700 704 708 711 714 717 719 720 722 724 726 729 732 734 736 738 739 740 742 744 745 748 750 752 754 757 759 762 764 766 767 768 768 768 768 768 767 766 765 765 766 766 766 767 767 767 768 768 769 769 770 770 771 771 771 771 770 769
664 663 664 667 668 668 669 669 670 671 671 672 672 673 674 676 677 678 679 681 683 685 687 689 692 695 698 701 705 708 711 714 716 718 719 721 723 726 729 731 733 735 736 737 739 741 743 744 746 748 751 753 756 759 761 763 764 765 766 767 767 767 766 765 764 763 763 764 764 765 766 766 766 767 767 767 767 768 768 769 770 770 769 769 768
665 665 667 669 670 670 670 670 670 671 673 675 675 676 677 678 679 680 681 683 685 687 689 691 693 696 699 702 705 708 711 713 715 717 719 721 723 726 728 730 732 733 735 736 738 740 742 744 745 747 750 753 755 757 759 761 763 764 765 766 766 765 763 762 761 760 761 762 763 764 765 765 765 765 765 765 766 766 766 767 768 768 768 768 767
668 668 670 672 673 672 672 672 671 672 673 675 676 676 678 680 681 682 683 684 686 689 691 693 694 696 698 702 705 708 710 713 715 716 719 721 723 725 727 729 730 732 733 735 737 739 741 743 745 747 750 752 754 756 758 760 762 763 764 765 764 762 761 759 758 758 759 760 761 762 763 763 763 764 763 763 764 764 765 766 767 767 767 766 766
670 670 671 672 673 673 674 674 674 673 674 675 676 677 679 681 682 684 686 687 687 688 691 694 696 697 698 701 704 707 710 712 714 716 718 721 723 724 726 727 729 731 732 734 736 738 741 743 745 747 749 751 753 756 758 759 761 762 763 762 762 760 758 757 756 756 757 759 760 761 761 762 762 762 762 762 762 763 763 764 765 765 765 765 764
670 670 670 670 671 673 675 675 676 676 676 677 677 678 680 680 681 684 687 689 690 689 691 694 698 700 700 701 703 707 709 712 714 715 717 719 721 723 724 726 728 729 731 733 736 738 740 742 744 746 749 751 753 755 756 758 760 760 760 760 759 757 756 755 754 755 756 757 758 759 759 760 760 760 760 760 761 761 762 763 763 763 764 763 763
671 670 670 670 671 673 675 676 677 678 679 680 680 681 681 682 682 683 686 689 691 691 692 694 697 700 701 702 704 706 708 711 713 714 716 718 719 721 722 724 726 728 730 733 735 737 739 741 743 745 748 749 751 753 755 757 758 758 758 757 757 755 754 753 752 753 754 755 756 757 757 758 758 759 759 759 759 760 761 762 762 762 762 762 762